GW7189 Weather Reports


Display with metric or nautical units.
time (UTC)temp
F
wind
direction
speed
MPH
gust
MPH
rain 1hr
in
rain 24hr
in
rain mn
in
humidity
%
barometer
mb
20260906165057 76 234 1.0 2.0 0.00 0.00 0.00 77 1019.6
20260906164557 76 335 0.0 1.0 0.00 0.00 0.00 78 1019.6
20260906164059 76 360 0.0 0.0 0.00 0.00 0.00 79 1019.6
20260906163557 75 238 1.0 2.0 0.00 0.00 0.00 78 1019.5
20260906163058 75 219 0.0 3.0 0.00 0.00 0.00 78 1019.4
20260906162556 75 346 1.0 2.0 0.00 0.00 0.00 78 1019.5
20260906162059 75 291 0.0 2.0 0.00 0.00 0.00 79 1019.6
20260906161557 75 238 1.0 3.0 0.00 0.00 0.00 78 1019.7
20260906161057 75 20 1.0 2.0 0.00 0.00 0.00 79 1019.7
20260906160557 74 23 0.0 1.0 0.00 0.00 0.00 80 1019.6
20260906155558 74 246 1.0 2.0 0.00 0.00 0.00 81 1019.5
20260906155100 73 273 0.0 1.0 0.00 0.00 0.00 82 1019.6
20260906154558 73 217 1.0 2.0 0.00 0.00 0.00 82 1019.6
20260906154056 73 213 1.0 2.0 0.00 0.00 0.00 82 1019.6
20260906153557 73 312 1.0 2.0 0.00 0.00 0.00 83 1019.7
20260906153059 73 246 0.0 1.0 0.00 0.00 0.00 82 1019.8
20260906152557 73 273 1.0 1.0 0.00 0.00 0.00 84 1020.0
20260906152058 72 265 1.0 1.0 0.00 0.00 0.00 86 1020.0
20260906151557 72 231 2.0 2.0 0.00 0.00 0.00 86 1020.0
20260906151058 71 14 0.0 1.0 0.00 0.00 0.00 89 1019.9
20260906150557 71 274 2.0 2.0 0.00 0.00 0.00 88 1019.8
20260906145557 70 17 0.0 1.0 0.00 0.00 0.00 91 1019.8
20260906145057 70 231 0.0 0.0 0.00 0.00 0.00 92 1019.8
20260906144557 70 258 1.0 2.0 0.00 0.00 0.00 92 1019.8
20260906144101 69 57 1.0 1.0 0.00 0.00 0.00 92 1019.7
20260906143557 69 223 0.0 1.0 0.00 0.00 0.00 93 1019.7
20260906143100 69 360 0.0 0.0 0.00 0.00 0.00 94 1019.7
20260906142557 69 360 0.0 0.0 0.00 0.00 0.00 94 1019.8
20260906142059 69 239 0.0 1.0 0.00 0.00 0.00 94 1019.9
20260906141557 69 263 1.0 2.0 0.00 0.00 0.00 94 1019.9
20260906141058 69 212 1.0 2.0 0.00 0.00 0.00 95 1019.8
20260906140557 69 190 1.0 2.0 0.00 0.00 0.00 94 1019.8
20260906140057 69 220 1.0 2.0 0.00 0.00 0.00 94 1019.8
20260906135558 68 297 0.0 0.0 0.00 0.00 0.00 94 1019.8
20260906135059 68 250 1.0 2.0 0.00 0.00 0.00 95 1019.7
20260906134557 68 333 0.0 1.0 0.00 0.00 0.00 95 1019.6
20260906134100 69 274 2.0 3.0 0.00 0.00 0.00 95 1019.5
20260906133557 68 219 0.0 0.0 0.00 0.00 0.00 95 1019.4
20260906133059 68 317 0.0 1.0 0.00 0.00 0.00 96 1019.2
20260906132557 68 339 0.0 1.0 0.00 0.00 0.00 96 1019.2
20260906132057 68 91 0.0 0.0 0.00 0.00 0.00 96 1019.2
20260906131557 68 241 0.0 1.0 0.00 0.00 0.00 96 1019.2
20260906131058 68 24 0.0 1.0 0.00 0.00 0.00 96 1019.1
20260906130558 68 263 0.0 1.0 0.00 0.00 0.00 96 1019.0
20260906130100 68 325 0.0 1.0 0.00 0.00 0.00 96 1019.0
20260906125557 68 244 1.0 2.0 0.00 0.00 0.00 96 1019.0
20260906125100 68 253 0.0 1.0 0.00 0.00 0.00 97 1019.0
20260906124559 68 360 0.0 0.0 0.00 0.00 0.00 97 1018.9
20260906124059 67 324 1.0 1.0 0.00 0.00 0.00 98 1018.9
20260906123559 67 290 0.0 0.0 0.00 0.00 0.00 98 1019.0
20260906123059 67 236 0.0 2.0 0.00 0.00 0.00 98 1019.0
20260906122557 67 360 0.0 0.0 0.00 0.00 0.00 98 1018.9
20260906122058 67 219 0.0 1.0 0.00 0.00 0.00 98 1018.9
20260906121557 67 237 0.0 1.0 0.00 0.00 0.00 98 1018.9
20260906121058 67 245 0.0 1.0 0.00 0.00 0.00 98 1018.8
20260906120557 67 264 1.0 2.0 0.00 0.00 0.00 98 1018.8
20260906120059 67 295 0.0 0.0 0.00 0.00 0.00 98 1018.7
20260906115557 67 116 0.0 0.0 0.00 0.00 0.00 98 1018.6
20260906115057 67 218 0.0 0.0 0.00 0.00 0.00 98 1018.6
20260906114557 67 360 0.0 0.0 0.00 0.00 0.00 98 1018.5
20260906114058 67 243 0.0 1.0 0.00 0.00 0.00 98 1018.5
20260906113558 67 360 0.0 0.0 0.00 0.00 0.00 98 1018.5
20260906113100 67 235 0.0 0.0 0.00 0.00 0.00 97 1018.4
20260906112557 67 360 0.0 0.0 0.00 0.00 0.00 97 1018.4
20260906112058 67 360 0.0 0.0 0.00 0.00 0.00 97 1018.4
20260906111557 67 360 0.0 0.0 0.00 0.00 0.00 97 1018.4
20260906111058 67 184 0.0 0.0 0.00 0.00 0.00 97 1018.4
20260906110557 67 360 0.0 0.0 0.00 0.00 0.00 97 1018.4
20260906110105 67 360 0.0 0.0 0.00 0.00 0.00 97 1018.4
20260906105557 67 360 0.0 0.0 0.00 0.00 0.00 97 1018.4
20260906105058 68 360 0.0 0.0 0.00 0.00 0.00 96 1018.3
20260906104558 68 360 0.0 0.0 0.00 0.00 0.00 97 1018.3
20260906104058 68 360 0.0 0.0 0.00 0.00 0.00 97 1018.2
20260906103557 68 225 0.0 1.0 0.00 0.00 0.00 97 1018.2
20260906103059 68 260 0.0 1.0 0.00 0.00 0.00 96 1018.2
20260906102557 68 206 0.0 1.0 0.00 0.00 0.00 96 1018.2
20260906102058 68 208 0.0 1.0 0.00 0.00 0.00 96 1018.2
20260906101557 68 167 0.0 1.0 0.00 0.00 0.00 96 1018.2
20260906101058 68 162 0.0 0.0 0.00 0.00 0.00 96 1018.1
20260906100556 68 217 0.0 0.0 0.00 0.00 0.00 96 1018.1
20260906100057 69 360 0.0 0.0 0.00 0.00 0.00 95 1018.1
20260906095558 69 224 0.0 0.0 0.00 0.00 0.00 95 1018.0
20260906095057 69 360 0.0 0.0 0.00 0.00 0.00 95 1017.8
20260906094557 69 360 0.0 0.0 0.00 0.00 0.00 95 1017.7
20260906094059 69 360 0.0 0.0 0.00 0.00 0.00 95 1017.6
20260906093557 69 360 0.0 0.0 0.00 0.00 0.00 94 1017.5
20260906093057 69 225 0.0 1.0 0.00 0.00 0.00 94 1017.5
20260906092557 69 219 0.0 0.0 0.00 0.00 0.00 94 1017.5
20260906092058 69 360 0.0 0.0 0.00 0.00 0.00 93 1017.5
20260906091557 69 206 1.0 2.0 0.00 0.00 0.00 93 1017.6
20260906091059 70 194 1.0 1.0 0.00 0.00 0.00 93 1017.6
20260906090557 70 248 0.0 1.0 0.00 0.00 0.00 93 1017.6
20260906090059 70 21 0.0 1.0 0.00 0.00 0.00 93 1017.6
20260906085557 70 360 0.0 0.0 0.00 0.00 0.00 93 1017.6
20260906085058 70 360 0.0 0.0 0.00 0.00 0.00 93 1017.5
20260906084557 70 360 0.0 0.0 0.00 0.00 0.00 93 1017.5
20260906084058 70 360 0.0 0.0 0.00 0.00 0.00 93 1017.5
20260906083557 70 248 1.0 1.0 0.00 0.00 0.00 92 1017.5
20260906083100 70 360 0.0 0.0 0.00 0.00 0.00 92 1017.5
20260906082557 70 247 1.0 2.0 0.00 0.00 0.00 91 1017.4
20260906082058 71 222 0.0 0.0 0.00 0.00 0.00 90 1017.5
20260906081558 71 208 1.0 1.0 0.00 0.00 0.00 90 1017.5
20260906081058 71 247 0.0 1.0 0.00 0.00 0.00 90 1017.3
20260906080557 71 161 0.0 1.0 0.00 0.00 0.00 90 1017.4
20260906080100 71 296 1.0 1.0 0.00 0.00 0.00 89 1017.4
20260906075557 71 360 0.0 0.0 0.00 0.00 0.00 89 1017.4
20260906075058 71 286 0.0 1.0 0.00 0.00 0.00 89 1017.5
20260906074557 71 15 0.0 0.0 0.00 0.00 0.00 89 1017.5
20260906074100 71 360 0.0 0.0 0.00 0.00 0.00 89 1017.6
20260906073557 71 360 0.0 0.0 0.00 0.00 0.00 89 1017.6
20260906073058 71 360 0.0 0.0 0.00 0.00 0.00 89 1017.7
20260906072558 71 360 0.0 0.0 0.00 0.00 0.00 89 1017.8
20260906072059 71 360 0.0 0.0 0.00 0.00 0.00 88 1017.8
20260906071557 71 252 0.0 0.0 0.00 0.00 0.00 89 1017.8
20260906071058 71 360 0.0 0.0 0.00 0.00 0.00 89 1017.8
20260906070556 71 360 0.0 0.0 0.00 0.00 0.00 89 1017.8
20260906070100 71 360 0.0 0.0 0.00 0.00 0.00 88 1017.8
20260906065556 71 360 0.0 0.0 0.00 0.00 0.00 88 1017.8
20260906065058 72 360 0.0 0.0 0.00 0.00 0.00 88 1017.7
20260906064558 72 360 0.0 0.0 0.00 0.00 0.00 88 1017.7
20260906064059 72 360 0.0 0.0 0.00 0.00 0.00 87 1017.8
20260906063556 72 360 0.0 0.0 0.00 0.00 0.00 87 1017.9
20260906063100 72 360 0.0 0.0 0.00 0.00 0.00 86 1017.9
20260906062556 73 360 0.0 0.0 0.00 0.00 0.00 85 1017.9
20260906062057 73 360 0.0 0.0 0.00 0.00 0.00 85 1018.0
20260906061558 73 360 0.0 0.0 0.00 0.00 0.00 86 1017.9
20260906061058 73 360 0.0 0.0 0.00 0.00 0.00 86 1017.9
20260906060557 73 248 0.0 1.0 0.00 0.00 0.00 86 1017.9
20260906060100 73 268 0.0 0.0 0.00 0.00 0.00 86 1017.9
20260906055557 73 231 0.0 1.0 0.00 0.00 0.00 87 1017.8
20260906055057 73 239 1.0 3.0 0.00 0.00 0.00 87 1017.8
20260906054558 72 233 0.0 1.0 0.00 0.00 0.00 87 1017.7
20260906054059 72 360 0.0 0.0 0.00 0.00 0.00 88 1017.8
20260906053558 72 251 0.0 1.0 0.00 0.00 0.00 88 1017.8
20260906053059 72 360 0.0 0.0 0.00 0.00 0.00 89 1017.8
20260906052557 72 213 0.0 1.0 0.00 0.00 0.00 89 1017.8
20260906052059 71 235 0.0 1.0 0.00 0.00 0.00 90 1017.9
20260906051557 71 160 0.0 0.0 0.00 0.00 0.00 90 1017.9
20260906051059 71 360 0.0 0.0 0.00 0.00 0.00 91 1018.0
20260906050557 71 360 0.0 0.0 0.00 0.00 0.00 91 1018.0
20260906050101 71 360 0.0 0.0 0.00 0.00 0.00 91 1017.9
20260906045557 71 360 0.0 0.0 0.00 0.00 0.00 91 1018.0
20260906045058 71 360 0.0 0.0 0.00 0.00 0.00 92 1018.0
20260906044557 71 360 0.0 0.0 0.00 0.00 0.00 92 1018.1
20260906044058 70 360 0.0 0.0 0.00 0.00 0.00 92 1018.2
20260906043557 71 360 0.0 0.0 0.00 0.00 0.00 91 1018.2
20260906043059 71 360 0.0 0.0 0.00 0.00 0.00 91 1018.2
20260906042556 71 360 0.0 0.0 0.00 0.00 0.00 91 1018.2
20260906042058 71 360 0.0 0.0 0.00 0.00 0.00 91 1018.1
20260906041558 71 171 0.0 0.0 0.00 0.00 0.00 91 1018.1
20260906041058 71 160 0.0 1.0 0.00 0.00 0.00 91 1018.2
20260906040557 71 238 0.0 1.0 0.00 0.00 0.00 91 1018.2
20260906040100 71 360 0.0 0.0 0.00 0.00 0.00 90 1018.2
20260906035557 71 360 0.0 0.0 0.00 0.00 0.00 90 1018.3
20260906035058 71 70 0.0 0.0 0.00 0.00 0.00 90 1018.3
20260906034557 72 360 0.0 0.0 0.00 0.00 0.00 90 1018.3
20260906034058 72 360 0.0 0.0 0.00 0.00 0.00 89 1018.2
20260906033557 72 360 0.0 0.0 0.00 0.00 0.00 89 1018.1
20260906033059 72 360 0.0 0.0 0.00 0.00 0.00 88 1018.1
20260906032558 72 360 0.0 0.0 0.00 0.00 0.00 88 1018.1
20260906032059 72 360 0.0 0.0 0.00 0.00 0.00 89 1018.2
20260906031557 73 144 0.0 1.0 0.00 0.00 0.00 88 1018.2
20260906031059 73 360 0.0 0.0 0.00 0.00 0.00 89 1018.3
20260906030557 73 360 0.0 0.0 0.00 0.00 0.00 88 1018.2
20260906030101 73 75 0.0 1.0 0.00 0.00 0.00 88 1018.2
20260906025557 73 360 0.0 0.0 0.00 0.00 0.00 88 1018.3
20260906025059 73 307 0.0 0.0 0.00 0.00 0.00 89 1018.3
20260906024557 73 360 0.0 0.0 0.00 0.00 0.00 90 1018.2
20260906024058 73 360 0.0 0.0 0.00 0.00 0.00 88 1018.1
20260906023557 73 360 0.0 0.0 0.00 0.00 0.00 87 1017.9
20260906023100 73 360 0.0 0.0 0.00 0.00 0.00 87 1017.8
20260906022557 73 89 0.0 0.0 0.00 0.00 0.00 88 1017.8
20260906022059 73 360 0.0 0.0 0.00 0.00 0.00 88 1017.7
20260906021557 73 360 0.0 0.0 0.00 0.00 0.00 88 1017.7
20260906021058 73 360 0.0 0.0 0.00 0.00 0.00 86 1017.7
20260906020557 73 360 0.0 0.0 0.00 0.00 0.00 85 1017.5
20260906020057 74 360 0.0 0.0 0.00 0.00 0.00 84 1017.3
20260906015556 74 360 0.0 0.0 0.00 0.00 0.00 83 1017.1
20260906015059 74 360 0.0 0.0 0.00 0.00 0.00 82 1017.0
20260906014558 74 360 0.0 0.0 0.00 0.00 0.00 82 1016.8
20260906014058 75 72 0.0 0.0 0.00 0.00 0.00 81 1016.7
20260906013557 75 360 0.0 0.0 0.00 0.00 0.00 81 1016.6
20260906013101 75 360 0.0 0.0 0.00 0.00 0.00 80 1016.4
20260906012557 75 204 0.0 1.0 0.00 0.00 0.00 79 1016.4
20260906012059 76 94 0.0 0.0 0.00 0.00 0.00 79 1016.3
20260906011557 76 258 0.0 1.0 0.00 0.00 0.00 78 1016.3
20260906011059 76 229 0.0 1.0 0.00 0.00 0.00 77 1016.3
20260906010558 76 213 0.0 1.0 0.00 0.00 0.00 76 1016.3
20260906005557 77 269 0.0 1.0 0.00 0.00 0.00 75 1016.2
20260906005059 77 221 0.0 2.0 0.00 0.00 0.00 75 1016.1
20260906004559 78 360 0.0 0.0 0.00 0.00 0.00 76 1016.1
20260906004059 78 267 0.0 2.0 0.00 0.00 0.00 76 1016.0
20260906003557 79 360 0.0 0.0 0.00 0.00 0.00 75 1015.9
20260906003059 79 360 0.0 0.0 0.00 0.00 0.00 75 1015.9
20260906002557 80 360 0.0 0.0 0.00 0.00 0.00 74 1016.0
20260906002059 80 360 0.0 0.0 0.00 0.00 0.00 74 1015.9
20260906001557 80 113 0.0 0.0 0.00 0.00 0.00 73 1015.8
20260906001059 80 340 0.0 0.0 0.00 0.00 0.00 73 1015.7
20260906000557 81 266 1.0 2.0 0.00 0.00 0.00 71 1015.5
20260906000103 82 216 1.0 2.0 0.00 0.00 0.00 70 1015.5
20260905235558 82 310 1.0 2.0 0.00 0.00 0.00 70 1015.7
20260905235059 82 235 0.0 2.0 0.00 0.00 0.00 68 1015.5
20260905234557 82 247 0.0 2.0 0.00 0.00 0.00 68 1015.5
20260905234059 83 224 1.0 2.0 0.00 0.00 0.00 66 1015.5
20260905233557 83 222 1.0 3.0 0.00 0.00 0.00 67 1015.5
20260905233100 83 200 1.0 4.0 0.00 0.00 0.00 66 1015.4
20260905232557 83 211 0.0 2.0 0.00 0.00 0.00 66 1015.4
20260905232100 83 345 0.0 2.0 0.00 0.00 0.00 67 1015.4
20260905231557 83 262 1.0 2.0 0.00 0.00 0.00 65 1015.2
20260905231058 83 230 0.0 1.0 0.00 0.00 0.00 66 1015.2
20260905230557 83 190 1.0 2.0 0.00 0.00 0.00 65 1015.1
20260905230100 83 250 2.0 5.0 0.00 0.00 0.00 65 1015.0
20260905225557 83 214 1.0 6.0 0.00 0.00 0.00 66 1014.9
20260905225059 83 275 1.0 2.0 0.00 0.00 0.00 66 1014.8
20260905224558 83 322 0.0 1.0 0.00 0.00 0.00 66 1014.8
20260905224059 82 248 1.0 2.0 0.00 0.00 0.00 67 1014.9
20260905223557 82 360 0.0 0.0 0.00 0.00 0.00 67 1014.9
20260905223059 83 269 1.0 3.0 0.00 0.00 0.00 67 1015.0
20260905222557 83 295 0.0 1.0 0.00 0.00 0.00 66 1015.0
20260905222059 83 252 0.0 0.0 0.00 0.00 0.00 66 1015.1
20260905221557 83 208 1.0 4.0 0.00 0.00 0.00 63 1015.2
20260905221059 83 283 0.0 1.0 0.00 0.00 0.00 62 1015.1
20260905220556 84 21 0.0 4.0 0.00 0.00 0.00 62 1015.2
20260905215557 83 211 1.0 2.0 0.00 0.00 0.00 64 1015.4
20260905215059 83 40 1.0 6.0 0.00 0.00 0.00 62 1015.2
20260905214557 83 47 1.0 3.0 0.00 0.00 0.00 62 1015.0
20260905214058 83 30 1.0 2.0 0.00 0.00 0.00 62 1015.0
20260905213557 83 32 2.0 3.0 0.00 0.00 0.00 63 1015.0
20260905213101 83 1 0.0 2.0 0.00 0.00 0.00 64 1015.2
20260905212557 83 343 0.0 2.0 0.00 0.00 0.00 64 1015.2
20260905212059 83 254 0.0 2.0 0.00 0.00 0.00 63 1015.3
20260905211558 83 23 1.0 2.0 0.00 0.00 0.00 63 1015.3
20260905211056 83 27 1.0 3.0 0.00 0.00 0.00 63 1015.3
20260905210557 82 43 2.0 3.0 0.00 0.00 0.00 63 1015.3
20260905210100 82 57 2.0 4.0 0.00 0.00 0.00 65 1015.5
20260905205557 82 23 2.0 3.0 0.00 0.00 0.00 65 1015.8
20260905205059 82 85 1.0 2.0 0.00 0.00 0.00 66 1015.8
20260905204557 82 39 1.0 3.0 0.00 0.00 0.00 66 1015.9
20260905204059 82 51 1.0 4.0 0.00 0.00 0.00 65 1016.1
20260905203557 83 34 0.0 2.0 0.00 0.00 0.00 65 1016.2
20260905203058 83 64 1.0 3.0 0.00 0.00 0.00 65 1016.4
20260905202557 82 360 1.0 2.0 0.00 0.00 0.00 65 1016.4
20260905202056 82 15 1.0 2.0 0.00 0.00 0.00 65 1016.5
20260905201557 82 20 0.0 2.0 0.00 0.00 0.00 67 1016.6
20260905201059 82 95 0.0 1.0 0.00 0.00 0.00 67 1016.7
20260905200558 82 57 0.0 2.0 0.00 0.00 0.00 68 1016.8
20260905195556 81 189 1.0 2.0 0.00 0.00 0.00 68 1017.0
20260905195058 81 51 0.0 1.0 0.00 0.00 0.00 69 1017.0
20260905194557 81 8 0.0 1.0 0.00 0.00 0.00 70 1017.2
20260905194059 81 64 1.0 2.0 0.00 0.00 0.00 70 1017.2
20260905193556 81 50 0.0 2.0 0.00 0.00 0.00 70 1017.3
20260905193100 82 244 0.0 1.0 0.00 0.00 0.00 71 1017.2
20260905192557 82 44 0.0 2.0 0.00 0.00 0.00 70 1017.1
20260905192059 82 350 0.0 2.0 0.00 0.00 0.00 69 1017.2
20260905191557 82 360 0.0 0.0 0.00 0.00 0.00 70 1017.2
20260905191059 82 360 0.0 0.0 0.00 0.00 0.00 70 1017.2
20260905190557 82 4 0.0 1.0 0.00 0.00 0.00 70 1017.2
20260905190057 82 296 0.0 1.0 0.00 0.00 0.00 70 1017.2
20260905185558 82 38 1.0 2.0 0.00 0.00 0.00 69 1017.1
20260905185059 83 32 1.0 2.0 0.00 0.00 0.00 68 1017.1
20260905184557 83 15 0.0 1.0 0.00 0.00 0.00 68 1017.2
20260905184057 83 331 0.0 1.0 0.00 0.00 0.00 68 1017.2
20260905183559 83 223 0.0 2.0 0.00 0.00 0.00 69 1017.2
20260905183100 83 11 0.0 1.0 0.00 0.00 0.00 69 1017.2
20260905182557 82 355 0.0 1.0 0.00 0.00 0.00 70 1017.2
20260905182100 82 33 1.0 2.0 0.00 0.00 0.00 69 1017.3
20260905181557 82 85 0.0 1.0 0.00 0.00 0.00 72 1017.3
20260905181100 82 360 1.0 2.0 0.00 0.00 0.00 70 1017.3
20260905180557 82 34 0.0 2.0 0.00 0.00 0.00 69 1017.3
20260905175557 82 207 0.0 3.0 0.00 0.00 0.00 70 1017.5
20260905175058 81 6 1.0 2.0 0.00 0.00 0.00 71 1017.6
20260905174557 81 252 1.0 2.0 0.00 0.00 0.00 71 1017.7
20260905174059 80 248 0.0 2.0 0.00 0.00 0.00 73 1017.9
20260905173557 80 31 1.0 2.0 0.00 0.00 0.00 75 1017.9
20260905173100 79 300 0.0 1.0 0.00 0.00 0.00 76 1018.1
20260905172557 78 236 1.0 3.0 0.00 0.00 0.00 77 1018.1
20260905172059 78 25 1.0 2.0 0.00 0.00 0.00 78 1018.1
20260905171557 77 240 0.0 2.0 0.00 0.00 0.00 79 1018.1
20260905171059 77 6 1.0 2.0 0.00 0.00 0.00 80 1018.1
20260905170558 76 357 0.0 0.0 0.00 0.00 0.00 81 1018.1
20260905170101 76 252 0.0 1.0 0.00 0.00 0.00 82 1018.1
20260905165557 76 235 1.0 1.0 0.00 0.00 0.00 83 1018.1